OpenBCM V1.13 (Linux)

Packet Radio Mailbox

DB0FHN

[JN59NK Nuernberg]

 Login: GUEST





  
I0OJJ  > AMSAT    20.07.26 02:37l 322 Lines 15211 Bytes #999 (0) @ WW
BID : A5RMA_I0OJJ
Read: OE5RCO DJ6UX GUEST
Subj: 2Line Orbital Elements
Path: DB0FHN<OE2XZR<OE6XPE<DB0RKB<DK0WUE<HB9ON<IK7NXU<IK6IHL<IZ3LSV<I0OJJ
Sent: 260720/0033z @:I0OJJ.ITA.EU [Rome] $:A5RMA_I0OJJ

>From i0ojj@i0ojj.ampr.org Mon Jul 20 02:33:21 2026
Received: from i0ojj.ampr.org by i0ojj.ampr.org (JNOS2.0q.1) with SMTP
	id AA17065234 ; Mon, 20 Jul 2026 02:33:21 +0200
Received: by i0ojj.ampr.org with SMTP
	id AA17065231 ; Mon, 20 Jul 2026 02:27:03 +0200
Message-Id: <17065232@i0ojj.ampr.org>
>From: i0ojj@i0ojj.ampr.org

SB KEPS @ AMSAT  $ORB26201.1
2Line Orbital Elements 26201.AMSAT

QST de W1STR

AMSAT Orbital Elements for Amateur Satellites in TLE Format
>From Orbital Analysis Office
New England Sci-Tech STEM Education Center
Natick MA July 20, 2026
To all radio amateurs


These element sets describe the orbits of various satellites 
in use by the amateur radio community. For details see:
www.amsat.org/keplerian-elements-formats/

A daily update of element sets is available at:
www.amsat.org/tle/daily-bulletin.txt
or without bulletin text:
www.amsat.org/tle/dailytle.txt


AO-07
1 07530U 74089B   26200.80818112 -.00000050  00000-0 -21923-4 0  9990
2 07530 101.9907 214.3949 0012633  69.8401 117.5763 12.53698625364605
UO-11
1 14781U 84021B   26200.84094691  .00000686  00000-0  75341-4 0  9991
2 14781  97.8080 166.0566 0009206  78.5589 281.6662 14.90855208261994
LO-19
1 20442U 90005G   26200.48477854  .00000020  00000-0  23830-4 0  9995
2 20442  98.8846 223.1792 0012634 109.9055 250.3491 14.34131448907023
AO-27
1 22825U 93061C   26200.72412845  .00000023  00000-0  25920-4 0  9998
2 22825  98.6864 268.1231 0008503  13.1494 346.9909 14.30949793711652
FO-29
1 24278U 96046B   26200.84150182 -.00000047  00000-0 -11314-4 0  9994
2 24278  98.5218  45.2372 0350138  11.8992 349.0160 13.53275815477585
GO-32
1 25397U 98043D   26200.44634488  .00000001  00000-0  20729-4 0  9996
2 25397  99.0088 194.0215 0002289 108.4800 251.6627 14.24433824455925
ISS
1 25544U 98067A   26200.83077020  .00004561  00000-0  90718-4 0  9992
2 25544  51.6315 138.5480 0006793 315.6343  44.4100 15.49054454576813
NO-44
1 26931U 01043C   26200.28807483  .00000025  00000-0  40157-4 0  9997
2 26931  67.0498 161.2434 0005870 266.8644  93.1786 14.31965883295046
SO-50
1 27607U 02058C   26200.79184977  .00000350  00000-0  59404-4 0  9993
2 27607  64.5521  28.1016 0074388 256.4358 102.8454 14.83103200269292
CO-55
1 27844U 03031E   26200.84277556  .00000127  00000-0  73652-4 0  9993
2 27844  98.6745 208.9919 0010867  90.7577 269.4847 14.24353232196321
RS-22
1 27939U 03042A   26200.88915925  .00000332  00000-0  59356-4 0  9996
2 27939  98.3479  26.1739 0011592 158.5469 337.0728 14.73518243220367
CO-65
1 32785U 08021C   26200.79426966  .00001900  00000-0  12200-3 0  9993
2 32785  97.8299 182.9018 0006834 280.3432  79.7026 15.09722537990115
CO-66
1 32791U 08021J   26200.43979132  .00009500  00000-0  29358-3 0  9995
2 32791  97.7533 199.9049 0003547 147.5625 212.5835 15.33752550992235
RS-30
1 32953U 08025A   26200.85304227  .00000110  00000-0  72017-3 0  9990
2 32953  82.5071 335.1196 0018736 238.2115 121.7140 12.43181070823750
SRMSAT
1 37841U 11058D   26200.47281080  .00000323  00000-0  31520-4 0  9991
2 37841  19.9703 224.0535 0011622 198.3293 313.0958 14.11581587762388
ZACUBE-1
1 39417U 13066B   26200.80008485  .00001230  00000-0  98515-4 0  9991
2 39417  97.8002 163.2958 0044073 140.4395 220.0060 15.01340631685621
Delfi-N3xt
1 39428U 13066N   26200.76830272  .00003106  00000-0  27103-3 0  9993
2 39428  97.8311 121.0527 0075666  98.0344 262.9470 14.95385842679497
GOMX-1
1 39430U 13066Q   26200.80124735  .00000679  00000-0  10889-3 0  9996
2 39430  97.6464  39.2056 0127840 333.3842  26.0838 14.69548974674708
LO-74
1 39440U 13066AA  26200.81657757  .00001790  00000-0  16876-3 0  9990
2 39440  97.8920 149.9413 0055546 279.7020  79.7928 14.93985325681860
AO-73
1 39444U 13066AE  26200.86555310  .00004474  00000-0  27601-3 0  9991
2 39444  97.8300 173.0059 0038023  92.4857 268.0725 15.09856999684592
DTUSAT-2
1 40030U 14033W   26200.72884147  .00003348  00000-0  18119-3 0  9990
2 40030  98.0884 200.5336 0009578 118.7246 241.4948 15.15385003657611
LILACSAT-2
1 40908U 15049K   26200.83264144  .00011361  00000-0  18712-3 0  9996
2 40908  97.4625 238.9328 0008583 128.1087 232.0941 15.52462057600815
Lapan A3
1 41603U 16040E   26200.88897034  .00001687  00000-0  54725-4 0  9991
2 41603  97.1508 195.9673 0008309 255.4021 104.6301 15.33294735559821
CAS-2T
1 41847U 16066G   26200.79114971  .00000405  00000-0  65502-4 0  9993
2 41847  98.3811 276.1543 0341998  30.8342 331.2453 14.44775079509506
TechnoSat
1 42829U 17042E   26200.42789739  .00001246  00000-0  91427-4 0  9998
2 42829  97.4324 356.8685 0017022 349.5858  10.5014 15.05123837491551
AO-91
1 43017U 17073E   26200.88064495  .00003272  00000-0  14432-3 0  9998
2 43017  97.4661  67.4292 0148425 215.1388 143.9985 15.13097485470331
S-Net D
1 43186U 18014G   26200.72083125  .00002151  00000-0  11249-3 0  9993
2 43186  97.5323 105.3092 0006222 265.0958  94.9565 15.16940248463696
S-Net B
1 43187U 18014H   26200.73292644  .00002321  00000-0  12119-3 0  9999
2 43187  97.5328 105.3088 0006887 259.0675 100.9783 15.16909877463696
S-Net A
1 43188U 18014J   26200.71952977  .00002122  00000-0  11099-3 0  9995
2 43188  97.5338 105.5105 0006753 260.1260  99.9211 15.16948411463695
S-Net C
1 43189U 18014K   26200.60504808  .00002382  00000-0  12431-3 0  9999
2 43189  97.5354 105.4763 0008164 251.7007 108.3338 15.16900273462223
Ten-Koh
1 43677U 18084G   26200.47904245  .00001328  00000-0  10346-3 0  9994
2 43677  98.0768  34.2020 0009667  18.2791 341.8778 15.03059882421011
PO-101
1 43678U 18084H   26200.84539506  .00001076  00000-0  90347-4 0  9990
2 43678  98.1216  38.4843 0012582  70.0100 290.2476 15.00573604421113
QO-100
1 43700U 18090A   26200.86942573  .00000141  00000-0  00000+0 0  9991
2 43700   0.0196  79.3267 0002419  78.3748 118.7314  1.00273766 28006
MinXSS-2
1 43758U 18099A   26200.73547943  .00023234  00000-0  42933-3 0  9994
2 43758  97.4517 278.0241 0008890 146.7616 213.4194 15.49034638419160
AO-95
1 43770U 18099N   26200.71065676  .00005896  00000-0  22293-3 0  9995
2 43770  97.4362 260.8482 0007617 221.4673 138.5989 15.27327547418188
SNUSat 2
1 43782U 18099AA  26200.67827635  .00004094  00000-0  18064-3 0  9994
2 43782  97.4038 253.5693 0010707 172.5484 187.5913 15.22278571417978
SnugLite
1 43784U 18099AC  26200.70098053  .00006196  00000-0  23080-3 0  9993
2 43784  97.3847 254.6720 0004007 148.3436 211.8045 15.27814969418288
ITASat 1
1 43786U 18099AE  26200.62435112  .00003259  00000-0  15690-3 0  9992
2 43786  97.4008 251.4933 0011118 232.9708 127.0510 15.19411242417837
EAGLET 1
1 43790U 18099AJ  26200.59045669  .00001578  00000-0  92539-4 0  9997
2 43790  97.4212 249.4021 0009882 226.9623 133.0781 15.13151890417233
ESEO
1 43792U 18099AL  26200.37520814  .00001072  00000-0  81016-4 0  9992
2 43792  97.3963 236.3838 0011097 217.1128 142.9333 15.04333053416640
JO-97
1 43803U 18099AX  26200.70791220  .00009273  00000-0  27868-3 0  9998
2 43803  97.4105 263.6744 0007183 144.6783 215.4937 15.34606199418615
Suomi 100
1 43804U 18099AY  26200.67133222  .00006402  00000-0  22901-3 0  9991
2 43804  97.4163 260.9563 0010961 157.5717 202.6005 15.29092998418385
ISAT
1 43879U 18111D   26200.82684061  .00081147  00000-0  62698-3 0  9993
2 43879  97.5847 138.7178 0008409 131.1464 229.0525 15.71622952416285
UWE-4
1 43880U 18111E   26200.74821662  .00018901  00000-0  36288-3 0  9990
2 43880  97.5828 130.6868 0006845 177.3378 182.7909 15.47997215415810
Sparrow
1 43881U 18111F   26200.80511339  .00207395  00000-0  79431-3 0  9999
2 43881  97.6067 145.0445 0009005 135.6604 224.5389 15.86854129416523
Prox-1
1 44339U 19036A   26200.85034441  .00006073  00000-0  56662-3 0  9995
2 44339  23.9941 255.9362 0006395  58.2648 301.8475 14.91301779378357
Taurus 1
1 44530U 19059C   26200.79709258  .00002072  00000-0  33581-3 0  9991
2 44530  98.6449   7.6601 0008383 200.4734 159.6136 14.72392891363447
TO-108
1 44881U 19093C   26200.82541451  .00000813  00000-0  97648-4 0  9997
2 44881  97.7513 272.2597 0013122 346.2300  13.8556 14.86565370356265
RS-44
1 44909U 19096E   26200.76279995  .00000005  00000-0 -31876-4 0  9990
2 44909  82.5239 318.0601 0218440  68.3655 294.0559 12.79748859306517
SALSAT
1 46495U 20068K   26200.45326485  .00003827  00000-0  13372-3 0  9990
2 46495  97.8865 205.4942 0009672 177.8105 182.3178 15.30206359320292
CSS (TIANHE-1)
1 48274U 21035A   26200.82979203  .00011146  00000-0  14750-3 0  9999
2 48274  41.4682 123.7405 0001962 307.3451  52.7208 15.58206141298269
CUTE
1 49263U 21088D   26197.83813593  .08921004  25505-5  41832-3 0  9995
2 49263  97.3907 300.4441 0014216 277.7997  82.1689 16.41647044267308
TeikyoSat 4
1 49396U 21102B   26200.07072614  .00000759  00000-0  50932-4 0  9998
2 49396  97.3661 228.3148 0012110 175.2819 184.8527 15.09606558257533
Z-Sat
1 49399U 21102E   26200.88528302  .00002080  00000-0  10373-3 0  9993
2 49399  97.3312 235.2173 0018013 129.2395 231.0441 15.18483697258404
KOSEN 1
1 49402U 21102H   26200.83993338  .00004062  00000-0  15436-3 0  9995
2 49402  97.3167 242.3686 0015432  93.1872 267.1134 15.27252143259002
HO-113
1 50466U 21131B   26200.88954635  .00000194  00000-0  73582-4 0  9990
2 50466  98.4984 293.1030 0004285  18.1654 341.9687 14.41383829239822
SNUGLITE 2
1 52899U 22065F   26200.62403455  .00000411  00000-0  86947-4 0  9991
2 52899  98.2243 345.4048 0006141 283.8091  76.2427 14.64398349215742
UmKA 1 (RS40S)
1 57172U 23091G   26200.85642304  .00003018  00000-0  13844-3 0  9994
2 57172  97.5029 259.4321 0012568  13.9068 346.2511 15.21149926168974
CubeBel-2 (EU11S)
1 57175U 23091K   26200.82869690  .00006740  00000-0  23536-3 0  9997
2 57175  97.5028 264.3516 0009049  10.4254 349.7172 15.29887010169294
